星链-30110 (STARLINK-30110 )

导读 | 豆包AI

STARLINK-30110是美国太空探索技术公司Starlink星链互联网卫星星座的一员,于2023年7月28日发射入轨。星链计划旨在构建全球卫星互联网络,为全球偏远、基础设施匮乏区域提供高速低延迟互联网服务,该卫星承担星座组网运营任务,拓展全球卫星通信覆盖范围。

基本信息
目录编号:
57474
目录名称:
STARLINK-30110
国际标识:
2023-107T
轨道中心:
EARTH
卫星名称:
星链-30110
卫星全名:
星链-30110 (STARLINK-30110 )
卫星状态:
已陨落 最后检测时间 2026-02-05
发射日期:
2023-07-28 UTC
国别 :
美国 (US)
星等 :
--
轨道信息
数据来源 国际轨道数据
星历时间: 2026-02-05T17:41:39+0800
轨道信息已过期38天
半长轴: 6563.586km
偏心率: 0.0016028
轨道倾角: 42.965°
近地点辐角 147.978°
升交点赤经 51.349°
平近点角 212.209°
近地点: 174.928km
远地点: 195.97km
周期: 88.201分钟
每日圈数: 16.326424
详细信息
固有亮度:
5
最大亮度:
0.3
卫星平台:
Starlink v2.0 mini
覆盖范围:
全球
运营商:
太空探索技术公司
运营商所在国:
美国
制造商(研发单位):
太空探索技术公司
制造商所在国:
美国
使用方式:
暂无
卫星简介
星链(Starlink)计划是由太空探索技术公司(SpaceX)提出的一个巨型低轨卫星互联网星座项目,计划在2019年至2024年间在太空搭建由约1.2万颗卫星组成的“星链”网络,其中1584颗将部署在地球上空550千米处的近地轨道,并从2020年开始工作。该卫星仍在工作。